[Date Prev][Date Next][Thread Prev][Thread Next] - [Date Index][Thread Index][Author Index]
2 Line ISS Keps 9-7
- Subject: [sarex] 2 Line ISS Keps 9-7
- From: "Dave Larsen PhD" <doc@xxxxxxxxxxx>
- Date: Tue, 7 Sep 2004 03:13:37 -0700
ISS
1 25544U 98067A 04251.33422808 .00012877 00000-0 11228-3 0 6328
2 25544 51.6353 266.4200 0005558 119.6278 338.9626 15.69381661331226
----
Via the sarex mailing list at AMSAT.ORG courtesy of AMSAT-NA.
To unsubscribe, send "unsubscribe sarex" to Majordomo@amsat.org
AMSAT Home